Location: Dackenheim
(49.5215°N, 8.1854°E)
Time: 00:24:15
(UTC+00:00)

ALOS 2 - Pass Details

Date: 19 May 2025
Orbit: 630 x 632 km, 97.9° (Epoch: 23 June)

Event Time Altitude Azimuth Distance (km) Brightness Sun altitude
Exits shadow 22:18:01 33° 120° (ESE) 1,077 3.4 -19.0°
Maximum altitude 22:19:33 47° 70° (ENE) 844 3.2 -19.1°
Drops below altitude 10° 22:23:47 10° 357° (N) 2,028 6.4 -19.2°
Sets 22:26:03 0° 351° (N) 2,941 7.7 -19.3°
